Terminal Aerodrome Forecast
Issued by NWS Detroit/Pontiac, MI

Home | Current Version | Previous Version | Text Only | Print | Product List | Glossary On
Versions: 1 2 3 4 5 6 7 8 9 10 11 12 13 14 15
000
FTUS43 KDTX 312321
TAFFNT
TAF
KFNT 312321Z 0100/0124 28014G20KT P6SM FEW070
     FM010100 28006KT P6SM FEW100
     FM011600 27012G20KT P6SM SCT060=

USA.gov is the U.S. government's official web portal to all federal, state and local government web resources and services.